FEA YSSY-YSNW

Flight info

Callsign FEA
Flight time 0h 17m
Altitude 25000
Route YSSY/25
Aircraft C700/L-SDE3L/L

Departure

Time 2026-05-07 07:30
Airport Sydney Kingsford Smith International Airport (YSSY)

Arrival

Time 2026-05-07 07:47
Airport Naval Air Station Nowra - HMAS Albatross (YSNW)
Time Latitude Longitude Altitude Speed Heading
2026-05-07 06:53 -33.93483 151.19019 23 ft 0 kts 345°
2026-05-07 07:23 -33.93491 151.19022 22 ft 2 kts 345°
2026-05-07 07:23 -33.93502 151.19025 23 ft 0 kts 345°
2026-05-07 07:23 -33.93499 151.19027 24 ft 1 kts 17°
2026-05-07 07:24 -33.93505 151.19037 23 ft 0 kts 172°
2026-05-07 07:24 -33.93535 151.19027 21 ft 15 kts 195°
2026-05-07 07:24 -33.93595 151.18971 22 ft 12 kts 231°
2026-05-07 07:25 -33.93606 151.18956 20 ft 0 kts 221°
2026-05-07 07:25 -33.93611 151.18952 22 ft 0 kts 212°
2026-05-07 07:26 -33.93613 151.18951 22 ft 0 kts 210°
2026-05-07 07:26 -33.93630 151.18945 21 ft 9 kts 187°
2026-05-07 07:26 -33.93649 151.18946 20 ft 0 kts 173°
2026-05-07 07:27 -33.93666 151.18950 21 ft 12 kts 165°
2026-05-07 07:27 -33.93760 151.18953 20 ft 11 kts 228°
2026-05-07 07:28 -33.93769 151.18931 22 ft 0 kts 250°
2026-05-07 07:29 -33.93769 151.18930 22 ft 1 kts 250°
2026-05-07 07:30 -33.93777 151.18895 20 ft 28 kts 254°
2026-05-07 07:30 -33.93928 151.18258 24 ft 126 kts 254°
2026-05-07 07:30 -33.94214 151.17111 783 ft 134 kts 251°
2026-05-07 07:30 -33.94503 151.16000 1834 ft 155 kts 259°
2026-05-07 07:31 -33.94614 151.14555 2603 ft 198 kts 264°
2026-05-07 07:31 -33.94761 151.12689 3430 ft 249 kts 263°
2026-05-07 07:31 -33.94964 151.10502 4239 ft 259 kts 263°
2026-05-07 07:31 -33.95168 151.08444 4952 ft 247 kts 263°
2026-05-07 07:32 -33.95426 151.06232 5016 ft 279 kts 258°
2026-05-07 07:32 -33.96324 151.04124 5018 ft 292 kts 233°
2026-05-07 07:32 -33.98015 151.02767 5319 ft 295 kts 205°
2026-05-07 07:32 -34.00131 151.02550 5950 ft 322 kts 180°
2026-05-07 07:33 -34.02386 151.03077 6596 ft 334 kts 173°
2026-05-07 07:33 -34.04671 151.03811 7212 ft 348 kts 170°
2026-05-07 07:33 -34.07051 151.04600 7825 ft 360 kts 169°
2026-05-07 07:33 -34.09491 151.05372 8492 ft 365 kts 169°
2026-05-07 07:34 -34.11934 151.06157 9126 ft 371 kts 169°
2026-05-07 07:34 -34.14463 151.06923 9783 ft 377 kts 170°
2026-05-07 07:34 -34.17028 151.07688 10394 ft 381 kts 170°
2026-05-07 07:34 -34.19620 151.08465 11008 ft 385 kts 170°
2026-05-07 07:35 -34.22218 151.09254 11885 ft 384 kts 170°
2026-05-07 07:35 -34.24856 151.10062 12915 ft 397 kts 170°
2026-05-07 07:35 -34.27566 151.10901 13959 ft 405 kts 170°
2026-05-07 07:35 -34.30318 151.11766 14911 ft 412 kts 170°
2026-05-07 07:36 -34.33106 151.12655 15899 ft 417 kts 170°
2026-05-07 07:36 -34.35911 151.13561 16943 ft 428 kts 171°
2026-05-07 07:36 -34.38845 151.13960 17954 ft 422 kts 190°
2026-05-07 07:36 -34.41699 151.13228 18498 ft 421 kts 208°
2026-05-07 07:37 -34.44163 151.11503 18508 ft 397 kts 227°
2026-05-07 07:37 -34.45955 151.09100 18513 ft 376 kts 241°
2026-05-07 07:37 -34.47397 151.06481 18509 ft 372 kts 245°
2026-05-07 07:37 -34.48725 151.03778 18502 ft 373 kts 247°
2026-05-07 07:38 -34.50020 151.01040 18512 ft 376 kts 248°
2026-05-07 07:38 -34.51314 150.98275 18520 ft 377 kts 248°
2026-05-07 07:38 -34.52605 150.95508 18537 ft 377 kts 248°
2026-05-07 07:38 -34.53911 150.92740 18531 ft 377 kts 248°
2026-05-07 07:39 -34.55222 150.89985 18529 ft 377 kts 248°
2026-05-07 07:39 -34.56520 150.87267 18527 ft 377 kts 248°
2026-05-07 07:39 -34.57837 150.84515 18538 ft 375 kts 248°
2026-05-07 07:39 -34.59098 150.81929 18500 ft 320 kts 248°
2026-05-07 07:40 -34.60275 150.79599 18510 ft 322 kts 248°
2026-05-07 07:40 -34.61465 150.77281 17467 ft 329 kts 244°
2026-05-07 07:40 -34.63152 150.75263 16287 ft 352 kts 225°
2026-05-07 07:40 -34.65291 150.73713 15181 ft 361 kts 218°
2026-05-07 07:41 -34.67557 150.72375 14117 ft 363 kts 215°
2026-05-07 07:41 -34.69664 150.71285 12940 ft 291 kts 213°
2026-05-07 07:41 -34.71433 150.70477 11749 ft 256 kts 213°
2026-05-07 07:41 -34.73027 150.69757 10645 ft 250 kts 216°
2026-05-07 07:42 -34.74673 150.68796 9554 ft 265 kts 217°
2026-05-07 07:42 -34.76131 150.67886 8365 ft 215 kts 218°
2026-05-07 07:42 -34.77388 150.67129 7205 ft 198 kts 218°
2026-05-07 07:42 -34.78555 150.66404 6080 ft 178 kts 218°
2026-05-07 07:43 -34.79604 150.65725 4926 ft 165 kts 218°
2026-05-07 07:43 -34.80579 150.65045 3780 ft 159 kts 218°
2026-05-07 07:43 -34.81516 150.64358 3214 ft 158 kts 218°
2026-05-07 07:43 -34.82162 150.63867 3063 ft 173 kts 218°
2026-05-07 07:44 -34.83545 150.62779 2683 ft 174 kts 219°
2026-05-07 07:44 -34.84643 150.62250 2613 ft 169 kts 202°
2026-05-07 07:44 -34.85785 150.61977 2551 ft 166 kts 201°
2026-05-07 07:44 -34.86939 150.61701 2301 ft 178 kts 199°
2026-05-07 07:45 -34.88154 150.61364 1897 ft 174 kts 203°
2026-05-07 07:45 -34.89189 150.60818 1392 ft 139 kts 220°
2026-05-07 07:45 -34.89708 150.60012 1068 ft 116 kts 243°
2026-05-07 07:45 -34.90147 150.59219 1017 ft 121 kts 231°
2026-05-07 07:46 -34.90774 150.58525 1187 ft 123 kts 225°
2026-05-07 07:46 -34.91406 150.57800 1098 ft 125 kts 227°
2026-05-07 07:46 -34.92009 150.57061 883 ft 122 kts 231°
2026-05-07 07:46 -34.92624 150.56336 632 ft 121 kts 228°
2026-05-07 07:47 -34.93228 150.55615 467 ft 123 kts 227°
2026-05-07 07:47 -34.93626 150.55142 393 ft 117 kts 229°
2026-05-07 07:47 -34.94123 150.54560 365 ft 79 kts 232°
2026-05-07 07:47 -34.94315 150.54307 371 ft 17 kts 224°
2026-05-07 07:48 -34.94332 150.54312 371 ft 8 kts 51°
2026-05-07 07:48 -34.94236 150.54431 367 ft 15 kts 81°
2026-05-07 07:48 -34.94268 150.54514 367 ft 16 kts 108°
2026-05-07 07:48 -34.94215 150.54623 367 ft 18 kts 32°
2026-05-07 07:49 -34.94204 150.54690 362 ft 6 kts 146°
2026-05-07 07:49 -34.94222 150.54698 361 ft 0 kts 172°
2026-05-07 07:49 -34.94223 150.54698 361 ft 0 kts 172°